Home > Weather > Güstrow > Past weeks

Flag for Germany Past Weather in Güstrow, Mecklenburg-Western Pomerania, Germany — Yesterday and Last 2 Weeks

Now
61 °F

Passing clouds.


Feels Like: 61 °F
Forecast: 61 / 75 °F
Wind: 5 mph from West

Location: Laage

Current Time: Jul 28, 2016 at 5:03:25 AM

Latest Report: Jul 28, 2016 at 4:20 AM


Visibility: 4 mi

Pressure: 29.95 "Hg

Humidity: 94%

Dew Point: 59 °F

Location of GüstrowLocation

Past Weather in Güstrow — Graph

°F

Güstrow Temperature Yesterday

Maximum temperature yesterday: 70 °F (at 5:20 PM)
Minimum temperature yesterday: 57 °F (at 1:20 AM)
Average temperature yesterday: 63 °F

High & Low Weather Summary for the Past Weeks

 TemperatureHumidityPressure
High84 °F (Jul 21, 5:20 PM)100% (Jul 14, 3:20 AM)30.18 "Hg (Jul 14, 3:20 AM)
Low52 °F (Jul 14, 3:20 AM)30% (Jul 22, 1:20 PM)29.86 "Hg (Jul 13, 3:20 AM)
Average65 °F74%30.05 "Hg
* Reported Jul 13 3:20 AM — Jul 28 3:20 AM, Güstrow, Weather by CustomWeather, © 2016

Note: Actual official high and low records may vary slightly from our data, if they occured in-between our weather recording intervals... More about our weather records

Advertising

Güstrow Weather History for the Previous 24 Hours

Scroll right to see more
 ConditionsComfort  
Time TempWeatherWind HumidityBarometerVisibility
3:20 AM
Thu, Jul 28
61 °FFog.3 mph88%29.95 "HgN/A
1:20 AM61 °FPassing clouds.No wind94%29.95 "HgN/A
12:20 AM64 °FPassing clouds.5 mph83%29.95 "HgN/A
11:20 PM
Wed, Jul 27
64 °FPassing clouds.2 mph94%29.95 "HgN/A
10:20 PM63 °FPassing clouds.1 mph94%29.95 "HgN/A
9:20 PM64 °FScattered clouds.No wind88%29.95 "HgN/A
8:20 PM70 °FScattered clouds.6 mph73%29.95 "HgN/A
7:20 PM70 °FScattered clouds.7 mph73%29.92 "HgN/A
6:20 PM70 °FScattered clouds.6 mph73%29.95 "HgN/A
5:20 PM70 °FPartly sunny.6 mph73%29.95 "HgN/A
4:20 PM68 °FPartly sunny.5 mph78%29.98 "HgN/A
3:20 PM66 °FBroken clouds.7 mph83%29.98 "HgN/A
2:20 PM64 °FPartly sunny.9 mph83%29.98 "HgN/A
1:20 PM64 °FPartly sunny.13 mph83%30.01 "HgN/A
12:20 PM61 °FBroken clouds.10 mph94%30.04 "HgN/A
11:20 AM61 °FThunderstorms. Partly sunny.8 mph88%30.04 "Hg3 mi
10:20 AM61 °FSprinkles. Broken clouds.6 mph88%30.07 "Hg6 mi
9:20 AM61 °FLight rain. Partly sunny.2 mph88%30.07 "HgN/A
8:20 AM61 °FLight rain. Partly sunny.5 mph88%30.07 "HgN/A
7:20 AM59 °FLight rain. Partly sunny.5 mph94%30.09 "Hg6 mi
6:20 AM59 °FLight rain. Partly sunny.3 mph88%30.09 "HgN/A
5:20 AM59 °FPassing clouds.1 mph88%30.09 "HgN/A
Weather by CustomWeather, © 2016

See weather overviewHow to use our weather pages